Weather History for KPVW - November, 2013

Change the Weather History Date:

Thursday, November 14, 2013

  Actual Average Record
Temperature  
Mean Temperature 51 °F -  
Max Temperature 65 °F 61 °F 81 °F (1967)
Min Temperature 37 °F 35 °F 6 °F (1916)
Degree Days  
Heating Degree Days 14    
Growing Degree Days 1 (Base 50)    
Moisture  
Dew Point 29 °F    
Average Humidity 46    
Maximum Humidity 70    
Minimum Humidity 34    
Precipitation  
Precipitation 0.00 in - - ()
Sea Level Pressure  
Sea Level Pressure 29.99 in    
Wind  
Wind Speed 10 mph (WSW)    
Max Wind Speed 17 mph    
Max Gust Speed 22 mph    
Visibility 10 miles    
Events      
Averages and records for this station are not official NWS values.
T = Trace of Precipitation, MM = Missing Value Source: NWS Daily Summary

Daily Weather History Graph

Daily Weather History Graph

Search for Another Location

Airport or City:

Trip Planner

Search our weather history database for the weather conditions in past years. The results will help you decide how hot, cold, wet, or windy it might be!

Date:

Astronomy

Nov. 14, 2013 Rise Set
Actual Time 7:19 AM CST 5:43 PM CST
Civil Twilight 6:52 AM CST 6:09 PM CST
Nautical Twilight 6:22 AM CST 6:40 PM CST
Astronomical Twilight 5:52 AM CST 7:09 PM CST
Moon 3:59 PM CST (11/14) 4:23 AM CST (11/14)
Length of Visible Light 11h 17m
Length of Day
10h 24m
Waxing Gibbous, 92% of the Moon is Illuminated
Nov 14
Waxing Gibbous
Nov 17
Full
Nov 25
Last Quarter
Dec 2
New
Dec 9
First Quarter

Hourly Weather History & Observations

Time (CST) Temp. Windchill Dew Point Humidity Pressure Visibility Wind Dir Wind Speed Gust Speed Precip Events Conditions
12:15 AM 37.4 °F 30.3 °F 13.6 °F 38% 30.18 in 10.0 mi SSW 10.4 mph - N/A   Clear
12:35 AM 37.4 °F 30.3 °F 12.7 °F 36% 30.18 in 10.0 mi SSW 10.4 mph - N/A   Clear
12:55 AM 39.7 °F 33.7 °F 13.3 °F 34% 30.17 in 10.0 mi SW 9.2 mph - N/A   Clear
1:15 AM 39.7 °F 33.7 °F 13.6 °F 35% 30.16 in 10.0 mi SSW 9.2 mph - N/A   Clear
1:35 AM 39.7 °F 33.7 °F 13.1 °F 34% 30.15 in 10.0 mi SSW 9.2 mph - N/A   Clear
1:55 AM 39.7 °F 33.2 °F 13.1 °F 34% 30.14 in 10.0 mi SSW 10.4 mph - N/A   Clear
2:15 AM 39.7 °F 33.2 °F 13.6 °F 35% 30.13 in 10.0 mi SSW 10.4 mph - N/A   Clear
2:35 AM 39.7 °F 33.7 °F 15.3 °F 37% 30.13 in 10.0 mi SSW 9.2 mph - N/A   Clear
2:55 AM 39.7 °F 33.7 °F 16.3 °F 39% 30.13 in 10.0 mi SW 9.2 mph - N/A   Clear
3:15 AM 39.7 °F 33.7 °F 16.5 °F 39% 30.12 in 10.0 mi SW 9.2 mph - N/A   Clear
3:35 AM 39.7 °F 33.2 °F 17.4 °F 41% 30.11 in 10.0 mi SW 10.4 mph - N/A   Clear
3:55 AM 39.7 °F 34.3 °F 18.1 °F 42% 30.11 in 10.0 mi SW 8.1 mph - N/A   Clear
4:15 AM 39.7 °F 33.2 °F 18.5 °F 42% 30.10 in 10.0 mi SSW 10.4 mph - N/A   Clear
4:35 AM 39.7 °F 32.7 °F 19.2 °F 44% 30.09 in 10.0 mi SSW 11.5 mph - N/A   Clear
4:55 AM 38.7 °F 32.4 °F 19.2 °F 46% 30.08 in 10.0 mi SSW 9.2 mph - N/A   Clear
5:15 AM 37.6 °F 32.3 °F 18.9 °F 47% 30.08 in 10.0 mi SSW 6.9 mph - N/A   Clear
5:35 AM 37.9 °F 34.4 °F 20.1 °F 49% 30.07 in 10.0 mi SW 4.6 mph - N/A   Clear
5:55 AM 37.8 °F 35.3 °F 20.5 °F 50% 30.06 in 10.0 mi SSW 3.5 mph - N/A   Scattered Clouds
6:15 AM 37.4 °F 32.8 °F 20.3 °F 50% 30.05 in 10.0 mi South 5.8 mph - N/A   Scattered Clouds
6:35 AM 37.4 °F 32.8 °F 21.2 °F 52% 30.04 in 10.0 mi South 5.8 mph - N/A   Clear
6:55 AM 37.4 °F 32.8 °F 21.9 °F 54% 30.04 in 10.0 mi SSW 5.8 mph - N/A   Clear
7:15 AM 37.4 °F 33.8 °F 22.1 °F 54% 30.04 in 10.0 mi WSW 4.6 mph - N/A   Clear
7:35 AM 37.4 °F 32.8 °F 23.7 °F 58% 30.04 in 10.0 mi WSW 5.8 mph - N/A   Clear
7:55 AM 37.4 °F 32.1 °F 22.8 °F 56% 30.04 in 10.0 mi SW 6.9 mph - N/A   Clear
8:15 AM 39.7 °F 33.7 °F 23.9 °F 53% 30.04 in 10.0 mi SW 9.2 mph - N/A   Clear
8:35 AM 39.9 °F 32.9 °F 23.5 °F 52% 30.04 in 10.0 mi SW 11.5 mph - N/A   Scattered Clouds
8:55 AM 42.3 °F 34.8 °F 25.2 °F 51% 30.04 in 10.0 mi SW 15.0 mph - N/A   Overcast
9:15 AM 43.7 °F 37.3 °F 26.6 °F 51% 30.03 in 10.0 mi SW 12.7 mph 19.6 mph N/A   Overcast
9:35 AM 44.8 °F 38.7 °F 28.2 °F 52% 30.02 in 10.0 mi SSW 12.7 mph - N/A   Mostly Cloudy
9:55 AM 47.3 °F - 30.6 °F 52% 30.02 in 10.0 mi SSW 15.0 mph 18.4 mph N/A   Scattered Clouds
10:15 AM 50.0 °F - 31.8 °F 50% 30.02 in 10.0 mi SSW 16.1 mph - N/A   Scattered Clouds
10:35 AM 50.7 °F - 32.0 °F 49% 30.01 in 10.0 mi SW 13.8 mph - N/A   Mostly Cloudy
10:55 AM 52.3 °F - 32.4 °F 47% 30.01 in 10.0 mi SSW 11.5 mph - N/A   Overcast
11:15 AM 53.2 °F - 33.8 °F 48% 30.00 in 10.0 mi SSW 12.7 mph 20.7 mph N/A   Overcast
11:35 AM 55.9 °F - 35.2 °F 46% 29.99 in 10.0 mi SW 16.1 mph - N/A   Mostly Cloudy
11:55 AM 56.1 °F - 36.0 °F 47% 29.98 in 10.0 mi SW 17.3 mph - N/A   Scattered Clouds
12:15 PM 57.4 °F - 37.2 °F 47% 29.96 in 10.0 mi SW 15.0 mph - N/A   Scattered Clouds
12:35 PM 59.2 °F - 37.4 °F 44% 29.95 in 10.0 mi SSW 12.7 mph 21.9 mph N/A   Clear
12:55 PM 59.9 °F - 37.4 °F 43% 29.94 in 10.0 mi WSW 13.8 mph 18.4 mph N/A   Clear
1:15 PM 61.2 °F - 37.4 °F 41% 29.92 in 10.0 mi WSW 13.8 mph 19.6 mph N/A   Clear
1:35 PM 62.4 °F - 37.9 °F 40% 29.91 in 10.0 mi WSW 13.8 mph 20.7 mph N/A   Clear
1:55 PM 61.5 °F - 38.1 °F 42% 29.90 in 10.0 mi WSW 9.2 mph 18.4 mph N/A   Clear
2:15 PM 62.6 °F - 37.9 °F 40% 29.89 in 10.0 mi West 11.5 mph 17.3 mph N/A   Clear
2:35 PM 63.5 °F - 37.8 °F 39% 29.88 in 10.0 mi WSW 10.4 mph 18.4 mph N/A   Clear
2:55 PM 64.9 °F - 37.9 °F 37% 29.88 in 10.0 mi SW 8.1 mph 16.1 mph N/A   Clear
3:15 PM 64.8 °F - 37.8 °F 37% 29.87 in 10.0 mi WSW 9.2 mph - N/A   Clear
3:35 PM 65.8 °F - 38.7 °F 37% 29.86 in 10.0 mi WSW 9.2 mph - N/A   Clear
3:55 PM 64.9 °F - 37.9 °F 37% 29.86 in 10.0 mi SW 4.6 mph - N/A   Scattered Clouds
4:15 PM 64.9 °F - 37.9 °F 37% 29.86 in 10.0 mi SSW 4.6 mph - N/A   Scattered Clouds
4:35 PM 65.1 °F - 36.5 °F 35% 29.85 in 10.0 mi WNW 8.1 mph - N/A   Clear
4:55 PM 64.9 °F - 36.5 °F 35% 29.85 in 10.0 mi WNW 5.8 mph - N/A   Clear
5:15 PM 62.6 °F - 35.6 °F 37% 29.86 in 10.0 mi WNW 4.6 mph - N/A   Clear
5:35 PM 59.9 °F - 35.6 °F 40% 29.86 in 7.0 mi WNW 6.9 mph - N/A   Clear
5:55 PM 57.4 °F - 34.9 °F 43% 29.87 in 10.0 mi NW 4.6 mph - N/A   Clear
6:15 PM 55.6 °F - 34.2 °F 44% 29.88 in 10.0 mi NNW 9.2 mph - N/A   Clear
6:35 PM 56.8 °F - 35.2 °F 44% 29.89 in 10.0 mi North 10.4 mph - N/A   Clear
6:55 PM 54.9 °F - 35.8 °F 49% 29.90 in 10.0 mi North 9.2 mph - N/A   Clear
7:15 PM 54.9 °F - 36.1 °F 49% 29.90 in 10.0 mi North 8.1 mph - N/A   Clear
7:35 PM 52.3 °F - 33.4 °F 49% 29.90 in 10.0 mi North 8.1 mph - N/A   Clear
7:55 PM 52.3 °F - 32.9 °F 48% 29.90 in 10.0 mi North 8.1 mph - N/A   Clear
8:15 PM 52.2 °F - 32.7 °F 48% 29.90 in 10.0 mi North 8.1 mph - N/A   Clear
8:35 PM 50.0 °F - 33.3 °F 53% 29.91 in 10.0 mi North 5.8 mph - N/A   Clear
8:55 PM 50.0 °F - 33.3 °F 53% 29.91 in 10.0 mi NNW 8.1 mph - N/A   Clear
9:15 PM 50.0 °F - 32.7 °F 52% 29.91 in 10.0 mi NNW 10.4 mph - N/A   Clear
9:35 PM 51.1 °F - 34.9 °F 54% 29.91 in 10.0 mi North 9.2 mph - N/A   Clear
9:55 PM 50.0 °F - 34.7 °F 56% 29.92 in 10.0 mi NNW 9.2 mph - N/A   Clear
10:15 PM 50.0 °F - 35.6 °F 58% 29.92 in 10.0 mi NNW 10.4 mph - N/A   Clear
10:35 PM 48.7 °F - 33.8 °F 56% 29.93 in 10.0 mi NNW 9.2 mph - N/A   Clear
10:55 PM 43.7 °F 39.1 °F 31.6 °F 63% 29.93 in 10.0 mi NNW 8.1 mph - N/A   Clear
11:15 PM 43.5 °F 40.1 °F 31.8 °F 63% 29.93 in 10.0 mi NNW 5.8 mph - N/A   Clear
11:35 PM 40.1 °F 34.7 °F 31.1 °F 70% 29.94 in 10.0 mi NW 8.1 mph - N/A   Clear
11:55 PM 40.1 °F 35.3 °F 31.1 °F 70% 29.93 in 10.0 mi NW 6.9 mph - N/A   Clear